Time,TemperatureF,DewpointF,PressureIn,WindDirection,WindDirectionDegrees,WindSpeedMPH,WindSpeedGustMPH,Humidity,HourlyPrecipIn,Conditions,Clouds,dailyrainin,SoftwareType,DateUTC
2013-03-13 00:00:00,21.2,17.8,29.84,West,270,0.0,0.0,87,0.00,,,0.00,WUHU21636XXSP,2013-03-13 04:00:00,
2013-03-13 00:05:00,21.2,17.8,29.84,West,270,0.0,0.0,87,0.00,,,0.00,WUHU21636XXSP,2013-03-13 04:05:00,
2013-03-13 00:10:00,21.2,17.8,29.84,West,270,0.0,0.0,87,0.00,,,0.00,WUHU21636XXSP,2013-03-13 04:10:00,
2013-03-13 00:15:00,21.0,17.6,29.85,West,270,0.0,0.0,87,0.00,,,0.00,WUHU21636XXSP,2013-03-13 04:15:00,
2013-03-13 00:20:00,20.8,17.4,29.85,West,270,0.0,0.0,88,0.00,,,0.00,WUHU21636XXSP,2013-03-13 04:20:00,
2013-03-13 00:25:00,20.8,17.4,29.85,West,270,0.0,0.0,88,0.00,,,0.00,WUHU21636XXSP,2013-03-13 04:25:00,
2013-03-13 00:30:00,20.8,17.4,29.85,West,270,0.0,0.0,88,0.00,,,0.00,WUHU21636XXSP,2013-03-13 04:30:00,
2013-03-13 00:35:00,20.8,17.4,29.85,West,270,0.0,0.0,88,0.00,,,0.00,WUHU21636XXSP,2013-03-13 04:35:00,
2013-03-13 00:40:00,20.8,17.4,29.85,West,270,0.0,0.0,88,0.00,,,0.00,WUHU21636XXSP,2013-03-13 04:40:00,
2013-03-13 00:45:00,20.7,17.6,29.84,West,270,0.0,0.0,88,0.00,,,0.00,WUHU21636XXSP,2013-03-13 04:45:00,
2013-03-13 00:50:00,20.5,17.1,29.84,West,270,0.0,0.0,87,0.00,,,0.00,WUHU21636XXSP,2013-03-13 04:50:00,
2013-03-13 00:55:00,20.5,17.1,29.85,West,270,0.0,0.0,87,0.00,,,0.00,WUHU21636XXSP,2013-03-13 04:55:00,
2013-03-13 01:00:00,20.7,17.6,29.84,West,270,0.0,0.0,88,0.00,,,0.00,WUHU21636XXSP,2013-03-13 05:00:00,
2013-03-13 01:05:00,20.7,17.6,29.84,West,270,0.0,0.0,88,0.00,,,0.00,WUHU21636XXSP,2013-03-13 05:05:00,
2013-03-13 01:10:00,20.7,17.6,29.85,West,270,0.0,0.0,88,0.00,,,0.00,WUHU21636XXSP,2013-03-13 05:10:00,
2013-03-13 01:15:00,20.5,17.1,29.84,West,270,0.0,0.0,87,0.00,,,0.00,WUHU21636XXSP,2013-03-13 05:15:00,
2013-03-13 01:20:00,20.5,17.1,29.84,West,270,0.0,0.0,87,0.00,,,0.00,WUHU21636XXSP,2013-03-13 05:20:00,
2013-03-13 01:25:00,20.5,17.1,29.84,West,270,0.0,0.0,87,0.00,,,0.00,WUHU21636XXSP,2013-03-13 05:25:00,
2013-03-13 01:30:00,20.5,17.1,29.84,West,270,0.0,0.0,87,0.00,,,0.00,WUHU21636XXSP,2013-03-13 05:30:00,
2013-03-13 01:35:00,20.5,17.1,29.84,West,270,0.0,0.0,87,0.00,,,0.00,WUHU21636XXSP,2013-03-13 05:35:00,
2013-03-13 01:40:00,20.3,16.9,29.84,West,270,0.0,0.0,87,0.00,,,0.00,WUHU21636XXSP,2013-03-13 05:40:00,
2013-03-13 01:45:00,20.3,16.9,29.84,West,270,0.0,0.0,87,0.00,,,0.00,WUHU21636XXSP,2013-03-13 05:45:00,
2013-03-13 01:50:00,20.3,16.9,29.84,West,270,0.0,0.0,87,0.00,,,0.00,WUHU21636XXSP,2013-03-13 05:50:00,
2013-03-13 01:55:00,20.3,16.9,29.85,West,270,0.0,0.0,87,0.00,,,0.00,WUHU21636XXSP,2013-03-13 05:55:00,
2013-03-13 02:00:00,20.3,16.9,29.84,West,270,0.0,0.0,87,0.00,,,0.00,WUHU21636XXSP,2013-03-13 06:00:00,
2013-03-13 02:05:00,20.3,16.9,29.84,West,270,0.0,0.0,87,0.00,,,0.00,WUHU21636XXSP,2013-03-13 06:05:00,
2013-03-13 02:10:00,20.1,16.7,29.84,West,270,0.0,0.0,87,0.00,,,0.00,WUHU21636XXSP,2013-03-13 06:10:00,
2013-03-13 02:15:00,20.1,16.7,29.84,West,270,0.0,0.0,87,0.00,,,0.00,WUHU21636XXSP,2013-03-13 06:15:00,
2013-03-13 02:20:00,20.1,16.7,29.84,West,270,0.0,0.0,87,0.00,,,0.00,WUHU21636XXSP,2013-03-13 06:20:00,
2013-03-13 02:25:00,20.1,16.7,29.84,West,270,0.0,0.0,87,0.00,,,0.00,WUHU21636XXSP,2013-03-13 06:25:00,
2013-03-13 02:30:00,20.1,16.7,29.84,West,270,0.0,0.0,87,0.00,,,0.00,WUHU21636XXSP,2013-03-13 06:30:00,
2013-03-13 02:35:00,20.1,16.7,29.84,West,270,0.0,0.0,88,0.00,,,0.00,WUHU21636XXSP,2013-03-13 06:35:00,
2013-03-13 02:40:00,20.1,16.7,29.84,West,270,0.0,0.0,88,0.00,,,0.00,WUHU21636XXSP,2013-03-13 06:40:00,
2013-03-13 02:45:00,20.1,16.7,29.84,West,270,0.0,0.0,88,0.00,,,0.00,WUHU21636XXSP,2013-03-13 06:45:00,
2013-03-13 02:50:00,20.1,16.7,29.84,West,270,0.0,0.0,88,0.00,,,0.00,WUHU21636XXSP,2013-03-13 06:50:00,
2013-03-13 02:55:00,20.1,16.7,29.84,West,270,0.0,0.0,88,0.00,,,0.00,WUHU21636XXSP,2013-03-13 06:55:00,
2013-03-13 03:00:00,20.1,16.7,29.84,West,270,0.0,0.0,88,0.00,,,0.00,WUHU21636XXSP,2013-03-13 07:00:00,
2013-03-13 03:05:00,20.1,16.7,29.84,West,270,0.0,0.0,88,0.00,,,0.00,WUHU21636XXSP,2013-03-13 07:05:00,
2013-03-13 03:10:00,20.1,16.7,29.85,West,270,0.0,0.0,88,0.00,,,0.00,WUHU21636XXSP,2013-03-13 07:10:00,
2013-03-13 03:15:00,20.1,16.7,29.85,West,270,0.0,0.0,88,0.00,,,0.00,WUHU21636XXSP,2013-03-13 07:15:00,
2013-03-13 03:20:00,20.1,16.7,29.85,West,270,0.0,0.0,88,0.00,,,0.00,WUHU21636XXSP,2013-03-13 07:20:00,
2013-03-13 03:25:00,20.1,16.7,29.84,West,270,0.0,0.0,88,0.00,,,0.00,WUHU21636XXSP,2013-03-13 07:25:00,
2013-03-13 03:30:00,20.1,16.7,29.84,West,270,0.0,0.0,88,0.00,,,0.00,WUHU21636XXSP,2013-03-13 07:30:00,
2013-03-13 03:35:00,20.1,16.7,29.84,West,270,0.0,0.0,88,0.00,,,0.00,WUHU21636XXSP,2013-03-13 07:35:00,
2013-03-13 03:40:00,20.1,16.7,29.84,West,270,0.0,0.0,88,0.00,,,0.00,WUHU21636XXSP,2013-03-13 07:40:00,
2013-03-13 03:45:00,20.1,16.7,29.84,West,270,0.0,0.0,88,0.00,,,0.00,WUHU21636XXSP,2013-03-13 07:45:00,
2013-03-13 03:50:00,20.1,16.7,29.84,West,270,0.0,0.0,88,0.00,,,0.00,WUHU21636XXSP,2013-03-13 07:50:00,
2013-03-13 03:55:00,20.1,16.7,29.84,West,270,0.0,0.0,88,0.00,,,0.00,WUHU21636XXSP,2013-03-13 07:55:00,
2013-03-13 04:00:00,20.1,16.7,29.84,West,270,0.0,0.0,88,0.00,,,0.00,WUHU21636XXSP,2013-03-13 08:00:00,
2013-03-13 04:06:00,20.1,16.7,29.84,West,270,0.0,0.0,88,0.00,,,0.00,WUHU21636XXSP,2013-03-13 08:06:00,
2013-03-13 04:11:00,20.1,16.7,29.85,West,270,0.0,0.0,88,0.00,,,0.00,WUHU21636XXSP,2013-03-13 08:11:00,
2013-03-13 04:16:00,19.9,16.5,29.85,West,270,0.0,0.0,87,0.00,,,0.00,WUHU21636XXSP,2013-03-13 08:16:00,
2013-03-13 04:21:00,19.8,16.3,29.85,West,270,0.0,0.0,87,0.00,,,0.00,WUHU21636XXSP,2013-03-13 08:21:00,
2013-03-13 04:26:00,19.6,16.2,29.85,West,270,0.0,0.0,87,0.00,,,0.00,WUHU21636XXSP,2013-03-13 08:26:00,
2013-03-13 04:32:00,19.6,16.2,29.85,West,270,0.0,0.0,86,0.00,,,0.00,WUHU21636XXSP,2013-03-13 08:32:00,
2013-03-13 04:37:00,19.2,15.6,29.85,West,270,0.0,0.0,85,0.00,,,0.00,WUHU21636XXSP,2013-03-13 08:37:00,
2013-03-13 04:42:00,19.0,15.1,29.85,West,270,0.0,0.0,85,0.00,,,0.00,WUHU21636XXSP,2013-03-13 08:42:00,
2013-03-13 04:47:00,19.2,14.7,29.85,West,270,0.0,0.0,83,0.00,,,0.00,WUHU21636XXSP,2013-03-13 08:47:00,
2013-03-13 04:52:00,19.2,14.7,29.85,West,270,0.0,0.0,83,0.00,,,0.00,WUHU21636XXSP,2013-03-13 08:52:00,
2013-03-13 04:57:00,19.0,14.5,29.85,West,270,0.0,0.0,83,0.00,,,0.00,WUHU21636XXSP,2013-03-13 08:57:00,
2013-03-13 05:02:00,19.0,14.5,29.85,West,270,0.0,0.0,83,0.00,,,0.00,WUHU21636XXSP,2013-03-13 09:02:00,
2013-03-13 05:07:00,18.7,14.2,29.85,West,270,0.0,0.0,83,0.00,,,0.00,WUHU21636XXSP,2013-03-13 09:07:00,
2013-03-13 05:12:00,18.7,14.5,29.85,West,270,0.0,0.0,84,0.00,,,0.00,WUHU21636XXSP,2013-03-13 09:12:00,
2013-03-13 05:17:00,18.7,14.7,29.86,West,270,0.0,0.0,85,0.00,,,0.00,WUHU21636XXSP,2013-03-13 09:17:00,
2013-03-13 05:22:00,18.7,14.7,29.86,West,270,0.0,0.0,86,0.00,,,0.00,WUHU21636XXSP,2013-03-13 09:22:00,
2013-03-13 05:27:00,18.7,14.7,29.86,West,270,0.0,0.0,87,0.00,,,0.00,WUHU21636XXSP,2013-03-13 09:27:00,
2013-03-13 05:32:00,18.5,15.1,29.86,West,270,0.0,0.0,87,0.00,,,0.00,WUHU21636XXSP,2013-03-13 09:32:00,
2013-03-13 05:37:00,18.7,15.3,29.87,West,270,0.0,0.0,87,0.00,,,0.00,WUHU21636XXSP,2013-03-13 09:37:00,
2013-03-13 05:42:00,18.7,15.3,29.87,West,270,0.0,0.0,87,0.00,,,0.00,WUHU21636XXSP,2013-03-13 09:42:00,
2013-03-13 05:47:00,18.5,15.1,29.87,West,270,0.0,0.0,86,0.00,,,0.00,WUHU21636XXSP,2013-03-13 09:47:00,
2013-03-13 05:52:00,18.5,15.1,29.88,West,270,0.0,0.0,85,0.00,,,0.00,WUHU21636XXSP,2013-03-13 09:52:00,
2013-03-13 05:57:00,18.5,15.1,29.88,West,270,0.0,0.0,84,0.00,,,0.00,WUHU21636XXSP,2013-03-13 09:57:00,
2013-03-13 06:02:00,18.5,14.5,29.88,West,270,0.0,0.0,85,0.00,,,0.00,WUHU21636XXSP,2013-03-13 10:02:00,
2013-03-13 06:07:00,18.3,14.4,29.88,West,270,0.0,0.0,86,0.00,,,0.00,WUHU21636XXSP,2013-03-13 10:07:00,
2013-03-13 06:12:00,18.3,14.4,29.89,West,270,0.0,0.0,86,0.00,,,0.00,WUHU21636XXSP,2013-03-13 10:12:00,
2013-03-13 06:17:00,18.1,14.5,29.89,West,270,0.0,0.0,85,0.00,,,0.00,WUHU21636XXSP,2013-03-13 10:17:00,
2013-03-13 06:22:00,18.1,14.5,29.89,West,270,0.0,0.0,84,0.00,,,0.00,WUHU21636XXSP,2013-03-13 10:22:00,
2013-03-13 06:27:00,18.1,14.5,29.89,West,270,0.0,0.0,82,0.00,,,0.00,WUHU21636XXSP,2013-03-13 10:27:00,
2013-03-13 06:32:00,18.0,12.9,29.89,West,270,0.0,0.0,82,0.00,,,0.00,WUHU21636XXSP,2013-03-13 10:32:00,
2013-03-13 06:37:00,18.0,12.9,29.90,West,270,0.0,0.0,82,0.00,,,0.00,WUHU21636XXSP,2013-03-13 10:37:00,
2013-03-13 06:42:00,18.0,12.9,29.90,West,270,0.0,0.0,83,0.00,,,0.00,WUHU21636XXSP,2013-03-13 10:42:00,
2013-03-13 06:47:00,17.8,13.3,29.90,West,270,0.0,0.0,83,0.00,,,0.00,WUHU21636XXSP,2013-03-13 10:47:00,
2013-03-13 06:52:00,17.8,13.3,29.90,West,270,0.0,0.0,83,0.00,,,0.00,WUHU21636XXSP,2013-03-13 10:52:00,
2013-03-13 06:57:00,17.6,13.5,29.91,West,270,0.0,0.0,83,0.00,,,0.00,WUHU21636XXSP,2013-03-13 10:57:00,
2013-03-13 07:02:00,17.6,13.5,29.91,West,270,0.0,0.0,83,0.00,,,0.00,WUHU21636XXSP,2013-03-13 11:02:00,
2013-03-13 07:07:00,17.4,12.7,29.91,West,270,0.0,0.0,83,0.00,,,0.00,WUHU21636XXSP,2013-03-13 11:07:00,
2013-03-13 07:12:00,17.4,12.7,29.91,West,270,0.0,0.0,84,0.00,,,0.00,WUHU21636XXSP,2013-03-13 11:12:00,
2013-03-13 07:17:00,17.4,12.7,29.91,West,270,0.0,0.0,84,0.00,,,0.00,WUHU21636XXSP,2013-03-13 11:17:00,
2013-03-13 07:22:00,17.2,13.3,29.91,West,270,0.0,0.0,85,0.00,,,0.00,WUHU21636XXSP,2013-03-13 11:22:00,
2013-03-13 07:27:00,17.2,13.3,29.91,West,270,0.0,0.0,85,0.00,,,0.00,WUHU21636XXSP,2013-03-13 11:27:00,
2013-03-13 07:32:00,17.2,13.3,29.92,West,270,0.0,0.0,85,0.00,,,0.00,WUHU21636XXSP,2013-03-13 11:32:00,
2013-03-13 07:37:00,17.2,13.3,29.92,West,270,0.0,0.0,85,0.00,,,0.00,WUHU21636XXSP,2013-03-13 11:37:00,
2013-03-13 07:42:00,17.2,13.3,29.92,West,270,0.0,0.0,85,0.00,,,0.00,WUHU21636XXSP,2013-03-13 11:42:00,
2013-03-13 07:47:00,17.2,13.3,29.92,West,270,0.0,0.0,85,0.00,,,0.00,WUHU21636XXSP,2013-03-13 11:47:00,
2013-03-13 07:52:00,17.2,13.3,29.92,West,270,0.0,0.0,85,0.00,,,0.00,WUHU21636XXSP,2013-03-13 11:52:00,
2013-03-13 07:57:00,17.2,13.3,29.92,West,270,0.0,0.0,85,0.00,,,0.00,WUHU21636XXSP,2013-03-13 11:57:00,
2013-03-13 08:04:00,17.2,13.3,29.92,West,270,0.0,0.0,85,0.00,,,0.00,WUHU21636XXSP,2013-03-13 12:04:00,
2013-03-13 08:09:00,17.2,13.1,29.92,West,270,0.0,0.0,84,0.00,,,0.00,WUHU21636XXSP,2013-03-13 12:09:00,
2013-03-13 08:14:00,17.4,13.3,29.93,West,270,0.0,0.0,84,0.00,,,0.00,WUHU21636XXSP,2013-03-13 12:14:00,
2013-03-13 08:19:00,17.4,13.3,29.92,West,270,0.0,0.0,85,0.00,,,0.00,WUHU21636XXSP,2013-03-13 12:19:00,
2013-03-13 08:24:00,17.4,13.3,29.93,West,270,0.0,0.0,85,0.00,,,0.00,WUHU21636XXSP,2013-03-13 12:24:00,
2013-03-13 08:29:00,17.6,13.6,29.93,West,270,0.0,0.0,86,0.00,,,0.00,WUHU21636XXSP,2013-03-13 12:29:00,
2013-03-13 08:35:00,17.8,14.2,29.93,West,270,0.0,0.0,86,0.00,,,0.00,WUHU21636XXSP,2013-03-13 12:35:00,
2013-03-13 08:40:00,17.8,14.2,29.93,West,270,0.0,0.0,86,0.00,,,0.00,WUHU21636XXSP,2013-03-13 12:40:00,
2013-03-13 08:45:00,17.8,14.2,29.94,West,270,0.0,0.0,87,0.00,,,0.00,WUHU21636XXSP,2013-03-13 12:45:00,
2013-03-13 08:50:00,18.0,14.5,29.94,West,270,0.0,0.0,87,0.00,,,0.00,WUHU21636XXSP,2013-03-13 12:50:00,
2013-03-13 08:55:00,18.0,14.5,29.94,West,270,0.0,0.0,87,0.00,,,0.00,WUHU21636XXSP,2013-03-13 12:55:00,
2013-03-13 08:59:00,18.1,14.7,29.94,West,270,0.0,0.0,87,0.00,,,0.00,WUHU21636XXSP,2013-03-13 12:59:00,
2013-03-13 09:04:00,18.3,14.9,29.94,West,270,0.0,0.0,87,0.00,,,0.00,WUHU21636XXSP,2013-03-13 13:04:00,
2013-03-13 09:09:00,18.5,15.1,29.94,West,270,0.0,0.0,87,0.00,,,0.00,WUHU21636XXSP,2013-03-13 13:09:00,
2013-03-13 09:14:00,18.7,15.3,29.94,West,270,0.0,0.0,87,0.00,,,0.00,WUHU21636XXSP,2013-03-13 13:14:00,
2013-03-13 09:19:00,19.0,15.6,29.94,West,270,0.0,0.0,87,0.00,,,0.00,WUHU21636XXSP,2013-03-13 13:19:00,
2013-03-13 09:24:00,19.0,15.6,29.95,West,270,0.0,0.0,87,0.00,,,0.00,WUHU21636XXSP,2013-03-13 13:24:00,
2013-03-13 09:29:00,19.0,15.6,29.95,West,270,0.0,0.0,86,0.00,,,0.00,WUHU21636XXSP,2013-03-13 13:29:00,
2013-03-13 09:34:00,19.0,15.6,29.95,West,270,0.0,0.0,86,0.00,,,0.00,WUHU21636XXSP,2013-03-13 13:34:00,
2013-03-13 09:39:00,19.2,15.3,29.96,West,270,0.0,0.0,85,0.00,,,0.00,WUHU21636XXSP,2013-03-13 13:39:00,
2013-03-13 09:44:00,19.2,15.3,29.96,West,270,0.0,0.0,85,0.00,,,0.00,WUHU21636XXSP,2013-03-13 13:44:00,
2013-03-13 09:49:00,19.2,15.3,29.96,West,270,0.0,0.0,85,0.00,,,0.00,WUHU21636XXSP,2013-03-13 13:49:00,
2013-03-13 09:54:00,19.6,15.6,29.96,West,270,0.0,0.0,85,0.00,,,0.00,WUHU21636XXSP,2013-03-13 13:54:00,
2013-03-13 09:59:00,19.8,15.8,29.96,West,270,0.0,0.0,85,0.00,,,0.00,WUHU21636XXSP,2013-03-13 13:59:00,
2013-03-13 10:04:00,19.8,15.8,29.97,West,270,0.0,0.0,85,0.00,,,0.00,WUHU21636XXSP,2013-03-13 14:04:00,
2013-03-13 10:09:00,19.8,15.8,29.97,West,270,0.0,0.0,85,0.00,,,0.00,WUHU21636XXSP,2013-03-13 14:09:00,
2013-03-13 10:14:00,19.9,16.0,29.97,West,270,0.0,0.0,85,0.00,,,0.00,WUHU21636XXSP,2013-03-13 14:14:00,
2013-03-13 10:19:00,19.9,16.0,29.97,West,270,0.0,0.0,86,0.00,,,0.00,WUHU21636XXSP,2013-03-13 14:19:00,
2013-03-13 10:24:00,20.1,16.5,29.97,West,270,0.0,0.0,86,0.00,,,0.00,WUHU21636XXSP,2013-03-13 14:24:00,
2013-03-13 10:30:00,20.3,16.7,29.98,West,270,0.0,0.0,85,0.00,,,0.00,WUHU21636XXSP,2013-03-13 14:30:00,
2013-03-13 10:34:00,20.5,16.9,29.98,West,270,0.0,0.0,86,0.00,,,0.00,WUHU21636XXSP,2013-03-13 14:34:00,
2013-03-13 10:39:00,20.1,16.2,29.98,West,270,0.0,0.0,85,0.00,,,0.00,WUHU21636XXSP,2013-03-13 14:39:00,
2013-03-13 10:44:00,20.5,16.9,29.99,West,270,0.0,0.0,86,0.00,,,0.00,WUHU21636XXSP,2013-03-13 14:44:00,
2013-03-13 10:49:00,20.8,16.9,29.99,West,270,0.0,0.0,85,0.00,,,0.00,WUHU21636XXSP,2013-03-13 14:49:00,
2013-03-13 10:54:00,20.8,16.9,29.99,West,270,0.0,0.0,83,0.00,,,0.00,WUHU21636XXSP,2013-03-13 14:54:00,
2013-03-13 10:59:00,21.0,15.8,29.99,West,270,0.0,0.0,80,0.00,,,0.00,WUHU21636XXSP,2013-03-13 14:59:00,
2013-03-13 11:05:00,21.6,16.3,30.00,West,270,0.0,0.0,80,0.00,,,0.00,WUHU21636XXSP,2013-03-13 15:05:00,
2013-03-13 11:10:00,21.6,16.3,30.00,West,270,0.0,0.0,80,0.00,,,0.00,WUHU21636XXSP,2013-03-13 15:10:00,
2013-03-13 11:15:00,22.3,17.1,30.00,West,270,0.0,0.0,80,0.00,,,0.00,WUHU21636XXSP,2013-03-13 15:15:00,
2013-03-13 11:20:00,22.3,17.1,30.00,West,270,0.0,0.0,78,0.00,,,0.00,WUHU21636XXSP,2013-03-13 15:20:00,
2013-03-13 11:25:00,22.1,15.8,30.00,West,270,0.0,0.0,77,0.00,,,0.00,WUHU21636XXSP,2013-03-13 15:25:00,
2013-03-13 11:30:00,22.1,15.8,30.00,West,270,0.0,0.0,77,0.00,,,0.00,WUHU21636XXSP,2013-03-13 15:30:00,
2013-03-13 11:35:00,22.1,16.2,30.00,West,270,0.0,0.0,78,0.00,,,0.00,WUHU21636XXSP,2013-03-13 15:35:00,
2013-03-13 11:40:00,21.7,15.8,30.01,West,270,0.0,0.0,78,0.00,,,0.00,WUHU21636XXSP,2013-03-13 15:40:00,
2013-03-13 11:45:00,22.3,16.3,30.01,West,270,0.0,0.0,78,0.00,,,0.00,WUHU21636XXSP,2013-03-13 15:45:00,
2013-03-13 11:50:00,22.3,16.3,30.01,West,270,0.0,0.0,79,0.00,,,0.00,WUHU21636XXSP,2013-03-13 15:50:00,
2013-03-13 11:55:00,21.9,15.6,30.01,West,270,0.0,0.0,77,0.00,,,0.00,WUHU21636XXSP,2013-03-13 15:55:00,
2013-03-13 12:00:00,21.9,15.6,30.02,West,270,0.0,0.0,78,0.00,,,0.00,WUHU21636XXSP,2013-03-13 16:00:00,
2013-03-13 12:05:00,21.9,16.0,30.02,West,270,0.0,0.0,78,0.00,,,0.00,WUHU21636XXSP,2013-03-13 16:05:00,
2013-03-13 12:10:00,21.7,15.8,30.02,West,270,0.0,0.0,78,0.00,,,0.00,WUHU21636XXSP,2013-03-13 16:10:00,
2013-03-13 12:15:00,21.7,15.8,30.02,West,270,0.0,0.0,78,0.00,,,0.00,WUHU21636XXSP,2013-03-13 16:15:00,
2013-03-13 12:20:00,23.2,16.7,30.02,West,270,0.0,0.0,76,0.00,,,0.00,WUHU21636XXSP,2013-03-13 16:20:00,
2013-03-13 12:25:00,23.2,16.7,30.03,West,270,0.0,0.0,74,0.00,,,0.00,WUHU21636XXSP,2013-03-13 16:25:00,
2013-03-13 12:30:00,23.2,16.7,30.03,West,270,0.0,0.0,74,0.00,,,0.00,WUHU21636XXSP,2013-03-13 16:30:00,
2013-03-13 12:35:00,22.6,16.3,30.03,West,270,0.0,0.0,77,0.00,,,0.00,WUHU21636XXSP,2013-03-13 16:35:00,
2013-03-13 12:40:00,22.6,16.3,30.04,West,270,0.0,0.0,77,0.00,,,0.00,WUHU21636XXSP,2013-03-13 16:40:00,
2013-03-13 12:45:00,22.6,16.3,30.04,West,270,0.0,0.0,77,0.00,,,0.00,WUHU21636XXSP,2013-03-13 16:45:00,
2013-03-13 12:50:00,23.7,16.9,30.04,West,270,0.0,0.0,75,0.00,,,0.00,WUHU21636XXSP,2013-03-13 16:50:00,
2013-03-13 12:55:00,24.1,16.9,30.04,West,270,0.0,0.0,74,0.00,,,0.00,WUHU21636XXSP,2013-03-13 16:55:00,
2013-03-13 13:08:00,23.5,15.8,30.05,West,270,0.0,0.0,72,0.00,,,0.00,WUHU21636XXSP,2013-03-13 17:08:00,
2013-03-13 13:13:00,24.1,16.5,30.05,West,270,0.0,0.0,73,0.00,,,0.00,WUHU21636XXSP,2013-03-13 17:13:00,
2013-03-13 13:18:00,23.7,16.2,30.05,West,270,0.0,0.0,73,0.00,,,0.00,WUHU21636XXSP,2013-03-13 17:18:00,
2013-03-13 13:23:00,24.3,16.3,30.05,West,270,0.0,0.0,72,0.00,,,0.00,WUHU21636XXSP,2013-03-13 17:23:00,
2013-03-13 13:28:00,24.3,16.7,30.05,West,270,0.0,0.0,73,0.00,,,0.00,WUHU21636XXSP,2013-03-13 17:28:00,
2013-03-13 13:33:00,24.4,16.9,30.06,West,270,0.0,0.0,73,0.00,,,0.00,WUHU21636XXSP,2013-03-13 17:33:00,
2013-03-13 13:38:00,24.6,15.4,30.06,West,270,0.0,0.0,68,0.00,,,0.00,WUHU21636XXSP,2013-03-13 17:38:00,
2013-03-13 13:43:00,23.7,14.9,30.06,West,270,0.0,0.0,69,0.00,,,0.00,WUHU21636XXSP,2013-03-13 17:43:00,
2013-03-13 13:48:00,23.7,15.6,30.07,West,270,0.0,0.0,71,0.00,,,0.00,WUHU21636XXSP,2013-03-13 17:48:00,
2013-03-13 13:53:00,24.3,14.7,30.07,West,270,0.0,0.0,67,0.00,,,0.00,WUHU21636XXSP,2013-03-13 17:53:00,
2013-03-13 13:58:00,24.4,16.0,30.07,West,270,0.0,0.0,70,0.00,,,0.00,WUHU21636XXSP,2013-03-13 17:58:00,
2013-03-13 14:03:00,24.8,16.3,30.07,West,270,0.0,0.0,68,0.00,,,0.00,WUHU21636XXSP,2013-03-13 18:03:00,
2013-03-13 14:08:00,25.3,17.1,30.07,West,270,0.0,0.0,71,0.00,,,0.00,WUHU21636XXSP,2013-03-13 18:08:00,
2013-03-13 14:13:00,25.3,16.5,30.07,West,270,0.0,0.0,69,0.00,,,0.00,WUHU21636XXSP,2013-03-13 18:13:00,
2013-03-13 14:18:00,25.2,16.3,30.07,West,270,0.0,0.0,65,0.00,,,0.00,WUHU21636XXSP,2013-03-13 18:18:00,
2013-03-13 14:23:00,25.2,16.3,30.07,West,270,0.0,0.0,65,0.00,,,0.00,WUHU21636XXSP,2013-03-13 18:23:00,
2013-03-13 14:28:00,25.0,14.0,30.07,West,270,0.0,0.0,62,0.00,,,0.00,WUHU21636XXSP,2013-03-13 18:28:00,
2013-03-13 14:33:00,25.7,14.7,30.07,West,270,0.0,0.0,63,0.00,,,0.00,WUHU21636XXSP,2013-03-13 18:33:00,
2013-03-13 14:38:00,25.5,14.9,30.07,West,270,0.0,0.0,64,0.00,,,0.00,WUHU21636XXSP,2013-03-13 18:38:00,
2013-03-13 14:43:00,25.9,15.3,30.07,West,270,0.0,0.0,64,0.00,,,0.00,WUHU21636XXSP,2013-03-13 18:43:00,
2013-03-13 14:48:00,25.3,15.4,30.07,West,270,0.0,0.0,66,0.00,,,0.00,WUHU21636XXSP,2013-03-13 18:48:00,
2013-03-13 14:53:00,25.7,13.6,30.07,West,270,0.0,0.0,60,0.00,,,0.00,WUHU21636XXSP,2013-03-13 18:53:00,
2013-03-13 14:58:00,25.9,14.9,30.07,West,270,0.0,0.0,63,0.00,,,0.00,WUHU21636XXSP,2013-03-13 18:58:00,
2013-03-13 15:03:00,26.2,15.6,30.07,West,270,0.0,0.0,64,0.00,,,0.00,WUHU21636XXSP,2013-03-13 19:03:00,
2013-03-13 15:08:00,25.9,15.6,30.07,West,270,0.0,0.0,65,0.00,,,0.00,WUHU21636XXSP,2013-03-13 19:08:00,
2013-03-13 15:13:00,25.9,15.6,30.07,West,270,0.0,0.0,65,0.00,,,0.00,WUHU21636XXSP,2013-03-13 19:13:00,
2013-03-13 15:18:00,25.5,15.6,30.07,West,270,0.0,0.0,66,0.00,,,0.00,WUHU21636XXSP,2013-03-13 19:18:00,
2013-03-13 15:23:00,26.2,16.7,30.07,West,270,0.0,0.0,67,0.00,,,0.00,WUHU21636XXSP,2013-03-13 19:23:00,
2013-03-13 15:28:00,26.2,16.7,30.07,West,270,0.0,0.0,64,0.00,,,0.00,WUHU21636XXSP,2013-03-13 19:28:00,
2013-03-13 15:33:00,26.2,14.9,30.07,West,270,0.0,0.0,62,0.00,,,0.00,WUHU21636XXSP,2013-03-13 19:33:00,
2013-03-13 15:38:00,26.4,15.4,30.07,West,270,0.0,0.0,66,0.00,,,0.00,WUHU21636XXSP,2013-03-13 19:38:00,
2013-03-13 15:43:00,26.8,16.5,30.07,West,270,0.0,0.0,64,0.00,,,0.00,WUHU21636XXSP,2013-03-13 19:43:00,
2013-03-13 15:48:00,26.8,16.2,30.07,West,270,0.0,0.0,64,0.02,,,0.02,WUHU21636XXSP,2013-03-13 19:48:00,
2013-03-13 15:53:00,26.4,16.2,30.08,West,270,0.0,0.0,65,0.02,,,0.02,WUHU21636XXSP,2013-03-13 19:53:00,
2013-03-13 15:58:00,26.4,16.2,30.08,West,270,0.0,0.0,64,0.02,,,0.02,WUHU21636XXSP,2013-03-13 19:58:00,
2013-03-13 16:03:00,26.8,15.4,30.08,West,270,0.0,0.0,62,0.02,,,0.02,WUHU21636XXSP,2013-03-13 20:03:00,
2013-03-13 16:08:00,27.3,16.7,30.08,West,270,0.0,0.0,64,0.02,,,0.02,WUHU21636XXSP,2013-03-13 20:08:00,
2013-03-13 16:13:00,27.3,14.7,30.08,West,270,0.0,0.0,59,0.02,,,0.02,WUHU21636XXSP,2013-03-13 20:13:00,
2013-03-13 16:18:00,26.8,15.4,30.09,West,270,0.0,0.0,64,0.02,,,0.02,WUHU21636XXSP,2013-03-13 20:18:00,
2013-03-13 16:23:00,26.8,15.4,30.09,West,270,0.0,0.0,62,0.02,,,0.02,WUHU21636XXSP,2013-03-13 20:23:00,
2013-03-13 16:28:00,26.4,14.7,30.09,West,270,0.0,0.0,61,0.02,,,0.02,WUHU21636XXSP,2013-03-13 20:28:00,
2013-03-13 16:33:00,26.8,15.8,30.09,West,270,0.0,0.0,63,0.02,,,0.02,WUHU21636XXSP,2013-03-13 20:33:00,
2013-03-13 16:38:00,26.2,15.6,30.10,West,270,0.0,0.0,65,0.02,,,0.02,WUHU21636XXSP,2013-03-13 20:38:00,
2013-03-13 16:43:00,26.8,16.2,30.09,West,270,0.0,0.0,64,0.02,,,0.02,WUHU21636XXSP,2013-03-13 20:43:00,
2013-03-13 16:48:00,27.0,17.1,30.10,West,270,0.0,0.0,66,0.00,,,0.02,WUHU21636XXSP,2013-03-13 20:48:00,
2013-03-13 16:53:00,27.0,16.7,30.10,West,270,0.0,0.0,65,0.00,,,0.02,WUHU21636XXSP,2013-03-13 20:53:00,
2013-03-13 16:58:00,26.6,16.0,30.10,West,270,0.0,0.0,64,0.00,,,0.02,WUHU21636XXSP,2013-03-13 20:58:00,
2013-03-13 17:03:00,26.8,16.2,30.10,West,270,0.0,0.0,62,0.00,,,0.02,WUHU21636XXSP,2013-03-13 21:03:00,
2013-03-13 17:08:00,26.2,14.5,30.10,West,270,0.0,0.0,61,0.00,,,0.02,WUHU21636XXSP,2013-03-13 21:08:00,
2013-03-13 17:13:00,26.2,14.5,30.10,West,270,0.0,0.0,64,0.00,,,0.02,WUHU21636XXSP,2013-03-13 21:13:00,
2013-03-13 17:18:00,26.2,14.5,30.10,West,270,0.0,0.0,62,0.00,,,0.02,WUHU21636XXSP,2013-03-13 21:18:00,
2013-03-13 17:23:00,26.1,14.7,30.10,West,270,0.0,0.0,62,0.00,,,0.02,WUHU21636XXSP,2013-03-13 21:23:00,
2013-03-13 17:28:00,25.9,13.8,30.11,West,270,0.0,0.0,60,0.00,,,0.02,WUHU21636XXSP,2013-03-13 21:28:00,
2013-03-13 17:33:00,25.5,13.5,30.11,NW,315,0.0,0.0,60,0.00,,,0.02,WUHU21636XXSP,2013-03-13 21:33:00,
2013-03-13 17:38:00,25.7,14.7,30.11,NW,315,0.0,0.0,61,0.00,,,0.02,WUHU21636XXSP,2013-03-13 21:38:00,
2013-03-13 17:43:00,25.9,14.5,30.11,NNW,337,0.0,0.0,62,0.00,,,0.02,WUHU21636XXSP,2013-03-13 21:43:00,
2013-03-13 17:48:00,25.5,14.2,30.11,NW,315,0.0,0.0,62,0.00,,,0.02,WUHU21636XXSP,2013-03-13 21:48:00,
2013-03-13 17:53:00,25.7,14.4,30.12,NW,315,0.0,0.0,62,0.00,,,0.02,WUHU21636XXSP,2013-03-13 21:53:00,
2013-03-13 17:59:00,25.9,14.5,30.12,NNW,337,0.0,0.0,62,0.00,,,0.02,WUHU21636XXSP,2013-03-13 21:59:00,
2013-03-13 18:04:00,25.9,13.8,30.12,NNW,337,0.0,0.0,60,0.00,,,0.02,WUHU21636XXSP,2013-03-13 22:04:00,
2013-03-13 18:09:00,25.9,13.8,30.12,NNW,337,0.0,0.0,60,0.00,,,0.02,WUHU21636XXSP,2013-03-13 22:09:00,
2013-03-13 18:14:00,25.9,13.8,30.13,NNW,337,0.0,0.0,60,0.00,,,0.02,WUHU21636XXSP,2013-03-13 22:14:00,
2013-03-13 18:19:00,25.7,14.4,30.13,NW,315,20.1,23.2,62,0.00,,,0.02,WUHU21636XXSP,2013-03-13 22:19:00,
2013-03-13 18:24:00,25.5,14.2,30.13,NW,315,19.6,23.2,62,0.00,,,0.02,WUHU21636XXSP,2013-03-13 22:24:00,
2013-03-13 18:29:00,25.3,14.4,30.13,NW,315,17.0,22.3,63,0.00,,,0.02,WUHU21636XXSP,2013-03-13 22:29:00,
2013-03-13 18:34:00,25.3,14.4,30.14,NNW,337,14.0,23.4,63,0.00,,,0.02,WUHU21636XXSP,2013-03-13 22:34:00,
2013-03-13 18:39:00,25.2,14.2,30.14,NW,315,16.3,23.4,63,0.00,,,0.02,WUHU21636XXSP,2013-03-13 22:39:00,
2013-03-13 18:44:00,25.3,14.4,30.14,NW,315,10.0,24.8,62,0.00,,,0.02,WUHU21636XXSP,2013-03-13 22:44:00,
2013-03-13 18:49:00,25.0,14.0,30.14,NW,315,14.5,24.8,63,0.00,,,0.02,WUHU21636XXSP,2013-03-13 22:49:00,
2013-03-13 18:54:00,25.0,14.7,30.14,NW,315,14.7,19.6,65,0.00,,,0.02,WUHU21636XXSP,2013-03-13 22:54:00,
2013-03-13 18:59:00,25.2,14.9,30.14,NNW,337,10.7,19.6,65,0.00,,,0.02,WUHU21636XXSP,2013-03-13 22:59:00,
2013-03-13 19:04:00,25.3,14.7,30.14,NNW,337,13.4,18.3,64,0.00,,,0.02,WUHU21636XXSP,2013-03-13 23:04:00,
2013-03-13 19:09:00,25.3,14.4,30.15,NW,315,13.6,18.3,64,0.00,,,0.02,WUHU21636XXSP,2013-03-13 23:09:00,
2013-03-13 19:14:00,25.3,14.7,30.15,NW,315,12.5,18.5,64,0.00,,,0.02,WUHU21636XXSP,2013-03-13 23:14:00,
2013-03-13 19:19:00,25.3,15.1,30.15,NW,315,8.0,18.5,64,0.00,,,0.02,WUHU21636XXSP,2013-03-13 23:19:00,
2013-03-13 19:24:00,25.2,15.3,30.15,NNW,337,11.1,18.1,66,0.00,,,0.02,WUHU21636XXSP,2013-03-13 23:24:00,
2013-03-13 19:29:00,24.6,14.4,30.15,NW,315,9.6,15.6,65,0.00,,,0.02,WUHU21636XXSP,2013-03-13 23:29:00,
2013-03-13 19:34:00,24.4,14.5,30.15,NNW,337,9.3,15.6,66,0.00,,,0.02,WUHU21636XXSP,2013-03-13 23:34:00,
2013-03-13 19:39:00,24.4,14.5,30.15,NW,315,9.8,17.4,66,0.00,,,0.02,WUHU21636XXSP,2013-03-13 23:39:00,
2013-03-13 19:44:00,24.4,14.9,30.15,NNW,337,13.4,19.4,67,0.00,,,0.02,WUHU21636XXSP,2013-03-13 23:44:00,
2013-03-13 19:49:00,24.1,14.5,30.16,NW,315,9.1,19.4,67,0.00,,,0.02,WUHU21636XXSP,2013-03-13 23:49:00,
2013-03-13 19:54:00,24.3,14.4,30.15,WNW,292,10.0,20.3,66,0.00,,,0.02,WUHU21636XXSP,2013-03-13 23:54:00,
2013-03-13 19:59:00,23.9,14.4,30.15,NW,315,11.1,20.3,67,0.00,,,0.02,WUHU21636XXSP,2013-03-13 23:59:00,
2013-03-13 20:04:00,23.5,14.0,30.16,NNW,337,10.7,16.1,67,0.00,,,0.02,WUHU21636XXSP,2013-03-14 00:04:00,
2013-03-13 20:09:00,23.7,14.2,30.16,NW,315,9.1,16.3,67,0.00,,,0.02,WUHU21636XXSP,2013-03-14 00:09:00,
2013-03-13 20:14:00,23.7,14.5,30.16,NW,315,7.6,16.3,68,0.00,,,0.02,WUHU21636XXSP,2013-03-14 00:14:00,
2013-03-13 20:19:00,23.7,14.5,30.16,NW,315,10.5,16.3,68,0.00,,,0.02,WUHU21636XXSP,2013-03-14 00:19:00,
2013-03-13 20:24:00,23.7,14.9,30.17,NW,315,11.1,17.4,69,0.00,,,0.02,WUHU21636XXSP,2013-03-14 00:24:00,
2013-03-13 20:29:00,23.7,14.9,30.17,NW,315,10.9,17.4,69,0.00,,,0.02,WUHU21636XXSP,2013-03-14 00:29:00,
2013-03-13 20:34:00,23.7,14.9,30.17,NNW,337,8.2,18.1,69,0.00,,,0.02,WUHU21636XXSP,2013-03-14 00:34:00,
2013-03-13 20:39:00,23.5,14.7,30.17,NW,315,7.8,18.1,69,0.00,,,0.02,WUHU21636XXSP,2013-03-14 00:39:00,
2013-03-13 20:44:00,23.2,15.1,30.17,NW,315,7.8,9.6,71,0.00,,,0.02,WUHU21636XXSP,2013-03-14 00:44:00,
2013-03-13 20:49:00,23.5,15.4,30.17,NNW,337,8.2,9.6,71,0.00,,,0.02,WUHU21636XXSP,2013-03-14 00:49:00,
2013-03-13 20:54:00,23.2,15.1,30.18,NNW,337,8.2,8.9,71,0.00,,,0.02,WUHU21636XXSP,2013-03-14 00:54:00,
2013-03-13 20:59:00,23.2,15.1,30.18,NNW,337,8.2,8.2,71,0.00,,,0.02,WUHU21636XXSP,2013-03-14 00:59:00,
2013-03-13 21:04:00,23.4,15.3,30.18,NNW,337,8.2,10.0,71,0.00,,,0.02,WUHU21636XXSP,2013-03-14 01:04:00,
2013-03-13 21:09:00,23.4,15.3,30.18,North,0,3.1,10.0,71,0.00,,,0.02,WUHU21636XXSP,2013-03-14 01:09:00,
2013-03-13 21:14:00,23.5,14.7,30.18,NNW,337,14.7,20.1,69,0.00,,,0.02,WUHU21636XXSP,2013-03-14 01:14:00,
2013-03-13 21:19:00,23.4,14.9,30.18,NNW,337,14.3,20.1,70,0.00,,,0.02,WUHU21636XXSP,2013-03-14 01:19:00,
2013-03-13 21:24:00,23.4,15.3,30.18,NW,315,11.8,18.7,71,0.00,,,0.02,WUHU21636XXSP,2013-03-14 01:24:00,
2013-03-13 21:29:00,23.4,15.3,30.18,NW,315,11.8,14.3,71,0.00,,,0.02,WUHU21636XXSP,2013-03-14 01:29:00,
2013-03-13 21:34:00,23.2,15.8,30.18,North,0,6.7,19.4,73,0.00,,,0.02,WUHU21636XXSP,2013-03-14 01:34:00,
2013-03-13 21:39:00,23.2,15.8,30.18,NNE,22,2.2,19.9,73,0.00,,,0.02,WUHU21636XXSP,2013-03-14 01:39:00,
2013-03-13 21:44:00,23.5,16.0,30.18,NNW,337,12.0,19.9,73,0.00,,,0.02,WUHU21636XXSP,2013-03-14 01:44:00,
2013-03-13 21:49:00,23.5,16.3,30.18,North,0,3.5,14.0,74,0.00,,,0.02,WUHU21636XXSP,2013-03-14 01:49:00,
2013-03-13 21:54:00,23.7,16.5,30.19,North,0,3.5,18.3,74,0.00,,,0.02,WUHU21636XXSP,2013-03-14 01:54:00,
2013-03-13 21:59:00,23.7,16.9,30.19,North,0,8.0,18.3,75,0.00,,,0.02,WUHU21636XXSP,2013-03-14 01:59:00,
2013-03-13 22:04:00,23.9,17.1,30.19,NNW,337,15.8,22.3,74,0.00,,,0.02,WUHU21636XXSP,2013-03-14 02:04:00,
2013-03-13 22:09:00,23.9,16.7,30.19,NNW,337,15.8,22.3,74,0.00,,,0.02,WUHU21636XXSP,2013-03-14 02:09:00,
2013-03-13 22:14:00,23.9,16.7,30.19,NNW,337,15.2,15.8,74,0.00,,,0.02,WUHU21636XXSP,2013-03-14 02:14:00,
2013-03-13 22:19:00,23.9,17.1,30.19,NNW,337,7.8,19.2,75,0.00,,,0.02,WUHU21636XXSP,2013-03-14 02:19:00,
2013-03-13 22:24:00,24.1,16.9,30.19,NW,315,15.6,19.2,74,0.00,,,0.02,WUHU21636XXSP,2013-03-14 02:24:00,
2013-03-13 22:29:00,24.3,16.7,30.19,NNW,337,9.3,26.3,73,0.00,,,0.02,WUHU21636XXSP,2013-03-14 02:29:00,
2013-03-13 22:34:00,24.1,17.2,30.19,NNW,337,9.8,26.3,75,0.00,,,0.02,WUHU21636XXSP,2013-03-14 02:34:00,
2013-03-13 22:39:00,24.3,17.1,30.19,NNW,337,11.8,20.8,74,0.00,,,0.02,WUHU21636XXSP,2013-03-14 02:39:00,
2013-03-13 22:44:00,24.1,16.9,30.19,NW,315,14.7,21.2,75,0.00,,,0.02,WUHU21636XXSP,2013-03-14 02:44:00,
2013-03-13 22:49:00,24.1,17.2,30.19,NNW,337,9.8,21.2,75,0.00,,,0.02,WUHU21636XXSP,2013-03-14 02:49:00,
2013-03-13 22:54:00,24.3,17.4,30.19,NNW,337,9.3,18.3,75,0.00,,,0.02,WUHU21636XXSP,2013-03-14 02:54:00,
2013-03-13 22:59:00,24.1,17.2,30.19,NW,315,15.8,23.0,75,0.00,,,0.02,WUHU21636XXSP,2013-03-14 02:59:00,
2013-03-13 23:04:00,24.1,17.2,30.19,NW,315,10.9,23.0,75,0.00,,,0.02,WUHU21636XXSP,2013-03-14 03:04:00,
2013-03-13 23:09:00,24.1,17.2,30.19,NNW,337,11.4,16.3,75,0.00,,,0.02,WUHU21636XXSP,2013-03-14 03:09:00,
2013-03-13 23:14:00,24.1,17.2,30.19,NNW,337,11.4,19.4,75,0.00,,,0.02,WUHU21636XXSP,2013-03-14 03:14:00,
2013-03-13 23:19:00,24.1,17.2,30.19,NW,315,9.3,19.4,75,0.00,,,0.02,WUHU21636XXSP,2013-03-14 03:19:00,
2013-03-13 23:24:00,23.9,17.1,30.19,NW,315,9.6,14.5,75,0.00,,,0.02,WUHU21636XXSP,2013-03-14 03:24:00,
2013-03-13 23:29:00,24.1,16.9,30.19,NNW,337,6.2,17.8,74,0.00,,,0.02,WUHU21636XXSP,2013-03-14 03:29:00,
2013-03-13 23:34:00,24.1,16.9,30.18,NNW,337,9.3,60.8,74,0.00,,,0.02,WUHU21636XXSP,2013-03-14 03:34:00,
2013-03-13 23:39:00,23.7,16.9,30.18,NNW,337,7.6,60.8,75,0.00,,,0.02,WUHU21636XXSP,2013-03-14 03:39:00,
2013-03-13 23:44:00,23.9,16.7,30.18,NW,315,11.8,16.5,74,0.00,,,0.02,WUHU21636XXSP,2013-03-14 03:44:00,
2013-03-13 23:49:00,23.9,17.1,30.18,NNW,337,6.4,16.5,74,0.00,,,0.02,WUHU21636XXSP,2013-03-14 03:49:00,
2013-03-13 23:54:00,23.9,17.1,30.18,NW,315,6.9,16.1,75,0.00,,,0.02,WUHU21636XXSP,2013-03-14 03:54:00,
2013-03-13 23:59:00,23.7,16.9,30.18,NW,315,13.4,16.1,75,0.00,,,0.02,WUHU21636XXSP,2013-03-14 03:59:00,